Activity Log for Mar, 01 2019

Back to Activity Log Search


Incident Time Nature Address
19A008754 00:24:39 120 GRABILL 135XX STATE ST
19A008755 00:33:08 1 MEET 144XX LIMA RD
19A008756 00:34:44 122 HUNTERTOWN 150XX LIMA RD
19A008757 00:36:11 33 DISABLED VEH 11XX I 469 SB
19A008758 01:51:06 EMS 22XX MORGAN CREEK DR
19A008759 02:25:18 34 TRAFF HAZARD SR 37 & NOTESTINE RD
19A008760 02:30:55 34 TRAFF HAZARD 82XX YELLOW RIVER RD
19A008761 02:49:58 121 WOODBURN 220XX MAIN ST
19A008762 03:43:23 40A AUDIBLE 47XX FAHLSING RD
19A008764 05:08:30 39 STOLEN VEHIC 168XX OLD 24
19A008763 05:15:48 40A AUDIBLE 80XX FRITZ RD
19A008766 05:54:36 30 TRAFFIC STOP W JEFFERSON BLVD & FREEMAN ST
19A008767 05:55:09 14S SERVING WAR 8XX MADISON ST
19A008768 05:57:14 911 HANG UP 132XX WINDSTONE LN
19A008770 06:23:32 120 GRABILL 135XX STATE ST
19A008771 07:03:08 40 ALARM 55XX DEER HOLLOW RD
19A008772 07:11:45 30 TRAFFIC STOP 140XX MONROEVILLE RD
19A008773 07:12:15 33,34 TONKEL RD & SCHLATTER RD
19A008774 07:35:48 17 MOTOR CHECK XX E MAIN ST
19A008776 07:42:15 30 TRAFFIC STOP LOWER HUNTINGTON RD & HOMESTEAD RD
19A008777 07:45:50 14S SERVING WAR 35XX KENDALE DR
19A008778 07:54:40 30 TRAFFIC STOP 302XX I 69 NB
19A008779 07:56:46 30 TRAFFIC STOP LIMA RD & EDGERTON ST
19A008780 07:58:12 30 TRAFFIC STOP COVERDALE RD & AIRPORT EXPRESSWAY
19A008781 07:59:29 17 MOTOR CHECK 238XX CARRIER RD STE 101
19A008782 08:00:35 30 TRAFFIC STOP DUNKELBERG RD & BLUFFTON RD
19A008783 08:01:02 30 TRAFFIC STOP BLUFFTON RD & W FERGUSON RD
19A008784 08:02:35 30 TRAFFIC STOP LOWER HUNTINGTON RD & KRESS RD
19A008785 08:04:22 30 TRAFFIC STOP SR 3 & HATHAWAY RD
19A008786 08:15:16 30 TRAFFIC STOP HOMESTEAD RD & ERNST RD
19A008787 08:18:37 30 TRAFFIC STOP 312XX I 69 SB
19A008788 08:20:32 80P Serving PO 37XX GAYWOOD DR
19A008789 08:25:00 30 TRAFFIC STOP 311XX I 69 SB
19A008790 08:26:46 16,97 133XX STATE ST
19A008791 08:27:01 50 BURGLARY 12XX W PLEASANT CENTER RD
19A008792 08:30:31 30 TRAFFIC STOP ERNST RD & HOMESTEAD RD
19A008793 08:44:29 129 114XX ERNST RD
19A008794 08:53:29 30 TRAFFIC STOP 306XX I 69 NB
19A008795 08:54:55 80P Serving PO 17XX WILLOW MOUND PL
19A008796 09:01:08 80P Serving PO 34XX LILLIE ST
19A008797 09:02:17 37 PARKING VIOL 4XX S CALHOUN ST
19A008798 09:17:05 30 TRAFFIC STOP 312XX I 69 SB
19A008799 09:18:21 22I JUV INVEST 91XX WINCHESTER RD
19A008800 09:19:17 120 GRABILL 135XX STATE ST
19A008811 09:31:33 65T SUICIDE THR 19XX W TILL RD
19A008801 09:36:47 EMS 91XX HEMPHILL DR
19A008802 09:43:35 14S SERVING WAR 46XX SOUTHPARK DR
19A008803 09:47:57 33,34 BARKLEY RD & S US 27
19A008805 09:53:35 40A AUDIBLE 136XX W HAMILTON RD
19A008804 09:54:18 56 MOLESTING 72XX FRANKE RD
19A008806 09:57:49 30 TRAFFIC STOP AIRPORT EXPRESSWAY & LOWER HUNTING
19A008807 09:58:39 65T SUICIDE THR 172XX WOODBURN RD
19A008808 09:59:30 27 RECKLESS DRI W RUDISILL BLVD & S HARRISON ST
19A008809 10:02:05 14S SERVING WAR 60XX FITCHBURG PL
19A008810 10:07:06 22I JUV INVEST 37XX CARROLL RD
19A008812 10:11:28 30 TRAFFIC STOP DUNKELBERG RD & BLUFFTON RD
19A008813 10:12:25 HARASSMENT 27XX HURSH RD
19A008814 10:16:39 14S SERVING WAR 33XX SMITH ST
19A008818 10:17:12 39 STOLEN VEHIC 141XX PONY EXPRESS RUN
19A008815 10:23:00 14S SERVING WAR 1XX E SUPERIOR ST
19A008816 10:23:56 14S SERVING WAR 28XX SOUTHWAY DR
19A008817 10:25:31 129 148XX WAYNE ST
19A008820 10:30:32 102,TX THREATS 29XX MAPLES RD
19A008819 10:31:37 30 TRAFFIC STOP E LEWIS ST & FRANCIS ST
19A008826 10:33:02 16,97 158XX SR 37
19A008821 10:35:06 80P Serving PO 11XX W MAIN ST
19A008822 10:44:25 30 TRAFFIC STOP AVIATION DR & AIRPORT EXPRESSWAY
19A008823 10:53:40 26PP PINNED 60XX LIMA RD
19A008824 10:55:03 1 MEET 132XX E TILLMAN RD
19A008825 11:03:53 80P Serving PO 27XX NORTHGATE BLVD STE 4
19A008827 11:09:26 129 9XX PROSPECT AVE
19A008830 11:10:26 51 THEFT 166XX E TILLMAN RD
19A008828 11:13:10 63Z ZACH CHECK 92XX ROBERTS RD
19A008832 11:19:48 14 WARRANT 17XX HOBSON RD
19A008831 11:23:42 80P Serving PO 23XX W WASHINGTON CENTER RD
19A008833 11:29:30 25 PD ACCIDENT S LAFAYETTE ST & E LEWIS ST
19A008837 11:32:05 55 FIGHT 29XX GOSHEN RD
19A008834 11:35:51 43 DISTURBANCE 91XX WINCHESTER RD
19A008835 11:36:24 102 THREATS 47XX WEATHERSIDE RUN
19A008838 11:55:08 80P Serving PO 122XX LAFAYETTE CENTER RD
19A008839 12:00:27 63Z ZACH CHECK 156XX SLUSHER RD
19A008840 12:33:54 129 122XX HARDISTY RD
19A008841 12:36:08 55 FIGHT 91XX WINCHESTER RD
19A008843 12:37:45 26 PI ACCIDENT I 69 AND LIMA RD
19A008842 12:38:22 14S SERVING WAR 74XX COLD SPRINGS BLVD
19A008845 12:53:59 17 MOTOR CHECK 57XX E PAULDING RD
19A008844 12:58:14 80P Serving PO 83XX TEWKSBURY CT
19A008846 12:59:59 14S SERVING WAR 9XX STEINMAN DR
19A008847 13:00:52 30 TRAFFIC STOP 310XX I 69 NB
19A008850 13:12:45 111D DOG 28XX E YODER RD
19A008848 13:23:48 129 107XX THIMLAR RD
19A008871 13:24:20 111D DOG 26XX DARWOOD GRV
19A008849 13:32:05 25 PD ACCIDENT ROTHMAN RD & MAPLECREST RD
19A008853 13:35:26 50,ATTEMPTED 2XX N HADLEY RD
19A008851 13:37:52 30 TRAFFIC STOP S CLINTON ST & E WASHINGTON BLVD
19A008852 13:40:23 108 FOLLOWUP 17XX E LINCOLN HWY
19A008854 13:47:36 14S SERVING WAR 81XX EBY RD
19A008855 13:53:22 80E EVICTION 30XX CENTRAL DR
19A008857 13:59:34 911 HANG UP 25XX S WESTHAMILTON RD
19A008856 14:01:52 14S SERVING WAR 37XX S CALHOUN ST
19A008858 14:07:45 911 HANG UP 99XX BULL RAPIDS RD
19A008859 14:11:48 30 TRAFFIC STOP 312XX I 69 NB
19A008860 14:19:08 80E EVICTION 11XX W WILDWOOD AVE
19A008861 14:19:43 14S SERVING WAR 4XX W RUDISILL BLVD
19A008862 14:21:50 14S SERVING WAR 22XX DUNKELBERG RD LOT 244
19A008863 14:24:24 14S SERVING WAR 28XX BRISTOE LN
19A008864 14:25:03 14S SERVING WAR 26XX SOUTHWAYNE AVE
19A008865 14:30:32 14S SERVING WAR 67XX RAMBLEWOOD CT
19A008866 14:44:11 63 CONTACT 72XX ILLINOIS RD
19A008867 14:48:51 14S SERVING WAR 10XX ROSE AVE
19A008868 14:53:15 129 40XX HATHAWAY RD
19A008869 14:57:47 37 PARKING VIOL 146XX AMSTUTZ RD
19A008870 14:58:45 30 TRAFFIC STOP AIRPORT EXPRESSWAY & ARDMORE AVE
19A008875 15:04:32 51,ATTEMPTED 166XX GARNET RIDGE CT
19A008872 15:13:24 30 TRAFFIC STOP W JEFFERSON BLVD & HOMESTEAD RD
19A008873 15:14:11 30 TRAFFIC STOP AIRPORT EXPRESSWAY & SMITH RD
19A008874 15:14:52 51,35 169XX SHADYVIEW DR
19A008876 15:17:53 33 DISABLED VEH E LINCOLN HWY & HOMESTEAD DR
19A008877 15:20:57 30 TRAFFIC STOP W JEFFERSON BLVD & BITTERSWEET MOO
19A008880 15:22:59 27 RECKLESS DRI 240XX SR 37
19A008878 15:23:51 30 TRAFFIC STOP AIRPORT EXPRESSWAY & BRANSTRATOR R
19A008879 15:24:31 14S SERVING WAR XX COUNTRY FOREST DR
19A008881 15:35:31 30 TRAFFIC STOP SR 37 & BLACK RD
19A008882 15:49:20 30 TRAFFIC STOP E FERGUSON RD & WINCHESTER RD
19A008884 15:52:13 30 TRAFFIC STOP FAIRFIELD AVE & ROSE LN
19A008883 15:53:33 33,34 20XX I 469 NB
19A008885 16:04:25 30 TRAFFIC STOP W SHOAFF RD & SR 3
19A008886 16:08:25 14 WARRANT 36XX ELMCREST DR
19A008887 16:09:11 55,62 HILLEGAS RD & W COLISEUM BLVD
19A008888 16:10:38 30 TRAFFIC STOP 14XX W SHOAFF RD
19A008890 16:18:24 14 WARRANT 79XX W JEFFERSON BLVD
19A008889 16:18:31 65T SUICIDE THR 40XX HATHAWAY RD
19A008891 16:26:47 25HS HIT SKIP SR 37 & BARNETT RD
19A008892 16:32:05 30 TRAFFIC STOP FLAUGH RD & BASS RD
19A008893 16:36:35 30 TRAFFIC STOP SR 37 & SCIPIO RD
19A008894 16:39:34 30 TRAFFIC STOP 302XX I 69 NB
19A008895 16:41:21 30 TRAFFIC STOP BASS RD & KROEMER RD
19A008896 16:45:47 30 TRAFFIC STOP BASS RD & DIAMOND CREEK RUN
19A008897 16:47:29 27 RECKLESS DRI 309XX I 69 NB
19A008898 16:56:41 43 DISTURBANCE 145XX AMSTUTZ RD
19A008899 17:00:43 129 40XX PARNELL AVE
19A008900 17:00:44 27 RECKLESS DRI SR 37 & DOTY RD
19A008901 17:08:47 123 LEO/CEDARVI 150XX SR 1
19A008902 17:09:33 30 TRAFFIC STOP W COLISEUM BLVD & NEWAYGO RD
19A008903 17:18:23 65A SUICIDE ATT 11XX MANCK DR
19A008904 17:23:43 30 TRAFFIC STOP E COLISEUM BLVD & HOBSON RD
19A008905 17:34:03 48,36 9XX BOGGS AVE
19A008906 17:49:09 30 TRAFFIC STOP REED RD & TRIER RD
19A008907 17:49:54 63 CONTACT 28XX PAINTED DESERT RUN
19A008908 17:52:06 26 PI ACCIDENT SR 3 & PINE RIDGE ENTR
19A008909 18:10:45 911 HANG UP 120XX STELLHORN RD
19A008910 18:13:52 30 TRAFFIC STOP AIRPORT EXPRESSWAY & AIRPORT DR
19A008911 18:25:59 22I JUV INVEST 137XX MAIN ST
19A008912 18:42:29 120 GRABILL 135XX STATE ST
19A008913 18:44:31 11 PICK UP PRIS 7XX BROADWAY
19A008914 18:51:05 30 TRAFFIC STOP N CLINTON ST & COLDWATER RD
19A008915 18:53:06 108 FOLLOWUP W RUDISILL BLVD & S HARRISON ST
19A008916 18:59:28 30 TRAFFIC STOP N CLINTON ST & ALLEN AVE
19A008917 19:12:03 27 RECKLESS DRI 25XX I 469 SB
19A008918 19:26:53 14S SERVING WAR 6XX E COLISEUM BLVD
19A008919 19:30:23 14S SERVING WAR 35XX ROLSTON ST
19A008920 19:35:59 14S SERVING WAR 18XX CHEROKEE RD
19A008921 19:40:16 911 HANG UP 86XX RICKER RD
19A008922 19:45:09 50 BURGLARY 1XX SPRUCE KNOLL DR
19A008923 19:55:53 14S SERVING WAR 65XX MONTE AVE
19A008924 20:01:16 14S SERVING WAR 13XX ROCKHILL ST
19A008925 20:10:24 48,36 E SHOAFF RD & COLDWATER RD
19A008926 20:13:28 14S SERVING WAR 36XX PARKHILL AVE
19A008927 20:19:47 46 DOMESTIC 126XX ROCKRIDGE PL
19A008928 20:28:48 14S SERVING WAR 71XX MOWHAWA DR
19A008929 20:30:19 14S SERVING WAR 67XX JOHN ST
19A008930 20:32:25 111I INJURED 126XX SR 1
19A008931 20:37:09 30 TRAFFIC STOP DAWKINS RD & S SR 101
19A008932 20:49:10 14S SERVING WAR 39XX N CLINTON ST LOT 47
19A008933 20:59:51 25 PD ACCIDENT SR 1 & UNION CHAPEL RD
19A008934 21:07:32 14S SERVING WAR 26XX BOWSER AVE
19A008935 21:16:39 25HS HIT SKIP 307XX I 69 SB
19A008936 21:23:27 28 DUI LIMA RD & SIMON RD
19A008937 21:30:47 40P PANIC ALARM 113XX LEATHERWOOD RUN
19A008938 21:34:04 27 RECKLESS DRI E SR 930 & MAPLECREST RD
19A008939 21:37:50 1 MEET 16XX BRITTANY CV
19A008940 21:38:21 30 TRAFFIC STOP 9XX MAIN ST
19A008941 21:40:28 122 HUNTERTOWN 150XX LIMA RD
19A008942 21:40:38 122 HUNTERTOWN 150XX LIMA RD
19A008943 21:46:41 22I JUV INVEST 51XX W TILL RD
19A008944 21:50:30 EMS 27XX ASCENSION CT
19A008945 22:17:14 129 12XX W PLEASANT CENTER RD
19A008946 22:29:08 46,96 91XX HEMPHILL DR
19A008947 22:40:56 33 DISABLED VEH W US 30 & BUTT RD
19A008948 22:54:08 129 97XX LA MESA DR
19A008949 22:56:36 46 DOMESTIC 109XX BRYIE RD
19A008950 23:43:59 123 LEO/CEDARVI 150XX SR 1
19A008951 23:52:09 40P PANIC ALARM 41XX CORDELL CV